Location: Härggis
(46.9540°N, 8.4897°E)
Time: 22:14:19
(UTC+00:00)

USA 305 - Pass Details

Date: 27 May 2022
Orbit: 549 x 553 km, 54.0° (Epoch: 14 June)

Event Time Altitude Azimuth Distance (km) Brightness Sun altitude
Exits shadow 00:58:13 24° 263° (W) 1,153 4.2 -18.5°
Maximum altitude 01:00:30 58° 335° (NNW) 645 3.3 -18.3°
Drops below altitude 10° 01:04:36 10° 55° (NE) 1,828 6.4 -18.0°
Sets 01:06:52 0° 59° (ENE) 2,723 7.3 -17.9°
